Weather in Landskrona

Sweden     55°53′17″N   12°50′07″E
В апреле 2022 года жителям России запретили посещать сайт meteo.paraplan.net по решению Генеральной прокуратуры. Аудитория сайта уменьшилась в 10 раз. Владельцы сайта не видят смысла в поддержке погодного сервера в таких условиях. Сайт будет закрыт в октябре.
temp.,
°C
wind,
m/s
gust,
m/s
humid.,
%
clouds,
%
prec.,
mm/h
press.,
hPa
HPBL,
m
4 october, tue
tue423:00+12nw588116 0.0 1019404
02:00+11nw468334 0.0 1018280
05:00+11wnw46928 0.0 1018259
08:00+11wnw469313 0.0 1017244
11:00+13w458074 0.0 1018493
14:00+15wsw467293 0.0 1017500
17:00+16wsw477592 0.0 1016408
20:00+14ssw61079100 0.1 1015327
5 october, wed
wed523:00+13sw6128099 0.0 1015589
02:00+14ssw61281100 0.0 1014459
05:00+13ssw51085100 0.0 1012385
08:00+13ssw61188100 0.0 1012370
11:00+14ssw71182100 0.0 1011440
14:00+16ssw71074100 0.0 1010426
17:00+16ssw8137419 0.0 1008473
20:00+16ssw815740 0.0 1008479
6 october, thu
thu623:00+16sw8157789 0.0 1008501
02:00+14wnw81190100 0.2 1009680
05:00+13w812867 0.2 1011793
08:00+13wsw81380100 0.9 1013913
11:00+13w1014760 0.1 10161281
14:00+14w1115725 0.3 10191176
17:00+14wsw1015730 0.1 10211229
20:00+13wsw10157939 0.1 10221034
7 october, fri
fri723:00+13wsw9138321 0.1 1023897
02:00+12wsw8138630 0.1 1023777
05:00+12sw813885 0.0 1022619
08:00+12sw814865 0.0 1020568
11:00+13ssw9147627 0.0 1020758
14:00+14ssw91467100 0.0 1017859
17:00+14sw91374100 0.0 1015850
20:00+14sw91476100 0.0 10141033
8 october, sat
sat823:00+13sw9157659 0.0 1012956
02:00+12sw111784100 0.6 10091256
05:00+11wsw9138441 1.5 1009983
08:00+11wsw10148145 2.0 10101012
11:00+12w1014743 1.0 10121264
14:00+13w1114705 1.4 10131334
17:00+12w10137265 0.4 10141245
20:00+11w913770 0.8 1015980